Home   Weather   Kannauj   Past weeks

Flag for India Past Weather in Kannauj, Uttar Pradesh, India — Yesterday and Last 2 Weeks

72 °F


Feels Like: 71 °F
Forecast: 68 / 93 °F
Wind: No wind

Location: Lucknow / Amausi

Current Time: Oct 21, 2016 at 3:07:33 AM

Latest Report: Oct 21, 2016 at 2:00 AM

Visibility: 1 mi

Pressure: 29.71 "Hg

Humidity: 83%

Dew Point: 66 °F

Location of KannaujLocation

Past Weather in Kannauj — Graph


Kannauj Temperature Yesterday

Maximum temperature yesterday: 91 °F (at 1:30 PM)
Minimum temperature yesterday: 66 °F (at 5:30 AM)
Average temperature yesterday: 79 °F

High & Low Weather Summary for the Past Weeks

High95 °F (Oct 10, 2:30 PM)100% (Oct 6, 2:00 AM)29.89 "Hg (Oct 6, 2:00 AM)
Low66 °F (Oct 14, 5:30 AM)30% (Oct 14, 1:00 PM)29.62 "Hg (Oct 6, 4:00 AM)
Average82 °F69%29.74 "Hg
* Reported Oct 6 2:00 AM — Oct 21 2:00 AM, Kannauj, Weather by CustomWeather, © 2016

Note: Actual official high and low records may vary slightly from our data, if they occured in-between our weather recording intervals... More about our weather records


Kannauj Weather History for the Previous 24 Hours

Scroll right to see more
Time TempWeatherWind HumidityBarometerVisibility
2:00 AM
Fri, Oct 21
72 °FFog.No wind83%29.71 "Hg1 mi
1:00 AM72 °FFog.No wind83%29.71 "Hg1 mi
12:00 AM72 °FFog.No wind83%29.74 "Hg1 mi
11:00 PM
Thu, Oct 20
75 °FHaze.No wind78%29.74 "Hg1 mi
10:00 PM75 °FHaze.No wind78%29.74 "Hg1 mi
9:00 PM75 °FHaze.No wind78%29.71 "Hg1 mi
8:30 PM77 °FHaze.No wind74%29.71 "Hg1 mi
8:00 PM79 °FHaze.No wind74%29.71 "Hg1 mi
7:30 PM81 °FHaze.No wind66%29.71 "Hg1 mi
7:00 PM81 °FHaze.No wind66%29.68 "Hg1 mi
6:30 PM84 °FHaze.No wind58%29.68 "Hg1 mi
6:00 PM86 °FHaze.No wind52%29.68 "Hg1 mi
5:30 PM88 °FHaze.No wind49%29.68 "Hg2 mi
5:00 PM90 °FHaze.2 mph43%29.68 "Hg2 mi
4:30 PM90 °FHaze.2 mph43%29.68 "Hg2 mi
4:00 PM91 °FHaze.2 mph38%29.68 "Hg2 mi
3:30 PM91 °FHaze.5 mph38%29.68 "Hg2 mi
2:30 PM91 °FHaze.2 mph38%29.68 "Hg2 mi
1:30 PM91 °FHaze.3 mph36%29.71 "Hg2 mi
1:00 PM88 °FHaze.3 mph40%29.71 "Hg1 mi
12:30 PM88 °FHaze.5 mph43%29.74 "Hg1 mi
12:00 PM86 °FHaze.5 mph46%29.74 "Hg1 mi
11:30 AM86 °FHaze.2 mph43%29.77 "Hg1 mi
11:00 AM84 °FHaze.2 mph51%29.77 "Hg1 mi
10:30 AM82 °FHaze.3 mph48%29.80 "Hg1 mi
10:00 AM81 °FHaze.2 mph58%29.80 "Hg1 mi
9:30 AM79 °FHaze.2 mph61%29.80 "Hg1 mi
9:00 AM79 °FFog.2 mph65%29.80 "Hg1 mi
8:30 AM73 °FFog.3 mph78%29.77 "Hg1 mi
8:00 AM70 °FFog.No wind88%29.77 "Hg1 mi
7:30 AM68 °FFog.No wind94%29.74 "Hg1 mi
7:00 AM66 °FFog.No wind94%29.74 "Hg1 mi
6:30 AM66 °FFog.No wind94%29.71 "Hg1 mi
6:00 AM66 °FFog.No wind94%29.71 "Hg1 mi
5:30 AM66 °FFog.No wind94%29.71 "Hg1 mi
5:00 AM68 °FFog.No wind94%29.68 "Hg1 mi
4:00 AM70 °FFog.No wind88%29.68 "Hg1 mi
3:00 AM70 °FFog.No wind88%29.71 "Hg1 mi
Weather by CustomWeather, © 2016

See weather overviewHow to use our weather pages